Location: Spangle
(47.4302°N, 117.3779°W)
Time: 15:03:49
(UTC+00:00)

Envisat - Pass Details

Date: 24 April 2026
Orbit: 761 x 762 km, 98.4° (Epoch: 15 May)

Event Time Altitude Azimuth Distance (km) Brightness Sun altitude
Rises 10:35:35 0° 14° (NNE) 3,236 7.3 -19.0°
Reaches altitude 10° 10:37:54 10° 14° (NNE) 2,305 6.4 -18.7°
Maximum altitude 10:42:59 88° 105° (ESE) 769 2.9 -18.1°
Enters shadow 10:45:51 27° 194° (SSW) 1,447 4.0 -17.8°
